Milford, UT

10:06 AM MST on December 04, 2016 (GMT -0700)
Milford Municipal

Weather History for KMLF - March, 2014

Change the Weather History Date:

Saturday, March 15, 2014

  Actual Average Record
Temperature  
Mean Temperature 40 °F -  
Max Temperature 57 °F 55 °F 75 °F (2013)
Min Temperature 24 °F 25 °F 12 °F (2002)
Degree Days  
Heating Degree Days 24    
Moisture  
Dew Point 15 °F    
Average Humidity 40    
Maximum Humidity 89    
Minimum Humidity 4    
Precipitation  
Precipitation 0.00 in - - ()
Sea Level Pressure  
Sea Level Pressure 30.30 in    
Wind  
Wind Speed 11 mph (North)    
Max Wind Speed 28 mph    
Max Gust Speed 36 mph    
Visibility 10 miles    
Events      
Averages and records for this station are not official NWS values.
T = Trace of Precipitation, MM = Missing Value Source: NWS Daily Summary

Daily Weather History Graph

Daily Weather History Graph

Search for Another Location

Airport or City:

Trip Planner

Search our weather history database for the weather conditions in past years. The results will help you decide how hot, cold, wet, or windy it might be!

Date:

Astronomy

Mar. 15, 2014 Rise Set
Actual Time 7:43 AM MDT 7:39 PM MDT
Civil Twilight 7:16 AM MDT 8:05 PM MDT
Nautical Twilight 6:46 AM MDT 8:36 PM MDT
Astronomical Twilight 6:15 AM MDT 9:07 PM MDT
Moon 7:02 PM MDT (3/15) 6:56 AM MDT (3/15)
Length of Visible Light 12h 48m
Length of Day
11h 56m
Waxing Gibbous, 99% of the Moon is Illuminated
Mar 15
Waxing Gibbous
Mar 16
Full
Mar 23
Last Quarter
Mar 30
New
Apr 7
First Quarter

Hourly Weather History & Observations

Time (MDT) Temp. Windchill Dew Point Humidity Pressure Visibility Wind Dir Wind Speed Gust Speed Precip Events Conditions
12:52 AM 46.0 °F 41.0 °F 33.1 °F 61% 30.13 in 10.0 mi NNE 10.4 mph - 0.00 in   Mostly Cloudy
1:52 AM 42.1 °F 36.1 °F 30.9 °F 65% 30.14 in 10.0 mi North 10.4 mph - N/A   Scattered Clouds
2:52 AM 37.0 °F 29.8 °F 30.0 °F 76% 30.17 in 10.0 mi North 10.4 mph - N/A   Clear
3:52 AM 34.0 °F 25.5 °F 28.9 °F 82% 30.18 in 10.0 mi NNW 11.5 mph - N/A   Clear
4:52 AM 35.1 °F 28.6 °F 28.9 °F 78% 30.18 in 10.0 mi North 8.1 mph - N/A   Clear
5:52 AM 30.0 °F 25.2 °F 26.1 °F 85% 30.21 in 10.0 mi ESE 4.6 mph - N/A   Clear
6:52 AM 30.0 °F 25.2 °F 27.0 °F 88% 30.24 in 10.0 mi South 4.6 mph - N/A   Clear
7:52 AM 27.0 °F 23.0 °F 24.1 °F 89% 30.31 in 10.0 mi South 3.5 mph - N/A   Clear
8:52 AM 37.0 °F 33.3 °F 28.0 °F 70% 30.32 in 10.0 mi West 4.6 mph - N/A   Clear
9:52 AM 41.0 °F 36.4 °F 30.9 °F 67% 30.32 in 10.0 mi SSE 6.9 mph - N/A   Clear
10:52 AM 50.0 °F - 23.0 °F 35% 30.29 in 10.0 mi NNE 11.5 mph - N/A   Clear
11:52 AM 52.0 °F - 14.0 °F 22% 30.30 in 10.0 mi North 20.7 mph 26.5 mph N/A   Clear
12:52 PM 54.0 °F - 14.0 °F 21% 30.30 in 10.0 mi North 16.1 mph 24.2 mph N/A   Clear
1:52 PM 55.9 °F - 6.1 °F 14% 30.31 in 10.0 mi North 23.0 mph 33.4 mph N/A   Clear
2:52 PM 57.0 °F - -0.0 °F 10% 30.32 in 10.0 mi North 27.6 mph 35.7 mph N/A   Clear
3:52 PM 55.9 °F - 1.0 °F 11% 30.32 in 10.0 mi NNE 16.1 mph 35.7 mph N/A   Clear
4:52 PM 57.0 °F - -4.0 °F 8% 30.32 in 10.0 mi NNE 26.5 mph 35.7 mph N/A   Clear
5:52 PM 55.9 °F - 1.0 °F 11% 30.35 in 10.0 mi NNE 24.2 mph 31.1 mph N/A   Clear
6:52 PM 53.1 °F - 3.0 °F 13% 30.37 in 10.0 mi NNE 19.6 mph - N/A   Clear
7:52 PM 46.9 °F - 1.0 °F 15% 30.42 in 10.0 mi NNE 9.2 mph - N/A   Clear
8:52 PM 39.0 °F 34.0 °F 1.0 °F 20% 30.41 in 10.0 mi Variable 6.9 mph - N/A   Clear
9:52 PM 41.0 °F 35.2 °F 3.9 °F 21% 30.42 in 10.0 mi NNW 9.2 mph - N/A   Clear
10:52 PM 35.1 °F 28.6 °F 3.9 °F 27% 30.43 in 10.0 mi WNW 8.1 mph - N/A   Clear
11:52 PM 34.0 °F - 5.0 °F 30% 30.43 in 10.0 mi Calm Calm - N/A   Clear